Weather History for Kremmling, CO

Change the Weather History Date:

Tuesday, February 26, 2013

  Actual Average (KEGE) Record (KEGE)
Temperature  
Mean Temperature 12 °F -  
Max Temperature 23 °F 44 °F 63 °F (1986)
Min Temperature 0 °F 14 °F -19 °F (1952)
Degree Days  
Heating Degree Days 54    
Moisture  
Dew Point 5 °F    
Average Humidity 73    
Maximum Humidity 93    
Minimum Humidity 54    
Precipitation  
Precipitation 0.00 in - - ()
Sea Level Pressure  
Sea Level Pressure 29.93 in    
Wind  
Wind Speed 1 mph (North)    
Max Wind Speed 9 mph    
Max Gust Speed -    
Averages and records for this station are not official NWS values.
T = Trace of Precipitation, MM = Missing Value Source: NWS Daily Summary

Daily Weather History Graph

Daily Weather History Graph

Search for Another Location

Airport:

Trip Planner

Search our weather history database for the weather conditions in past years. The results will help you decide how hot, cold, wet, or windy it might be!

Date:

Astronomy

Feb. 26, 2013 Rise Set
Actual Time 6:42 AM MST 5:54 PM MST
Civil Twilight 6:15 AM MST 6:21 PM MST
Nautical Twilight 5:44 AM MST 6:53 PM MST
Astronomical Twilight 5:12 AM MST 7:24 PM MST
Moon 7:13 PM MST (2/26) 6:46 AM MST (2/26)
Length of Visible Light 12h 06m
Length of Day
11h 11m
Full, 99% of the Moon is Illuminated
Feb 26
Full
Mar 4
Last Quarter
Mar 11
New
Mar 19
First Quarter
Mar 27
Full

Hourly Weather History & Observations

Time (MST) Temp. Windchill Dew Point Humidity Pressure Visibility Wind Dir Wind Speed Gust Speed Precip Events Conditions
12:16 AM -0.4 °F - -5.8 °F 78% 29.92 in - Calm Calm - N/A   Mostly Cloudy
12:35 AM 1.4 °F - -4.0 °F 78% 29.92 in - Calm Calm - N/A   Overcast
12:56 AM 1.4 °F - -4.0 °F 78% 29.92 in - Calm Calm - N/A   Overcast
1:16 AM 1.4 °F - -4.0 °F 78% 29.91 in - Calm Calm - N/A   Overcast
1:36 AM 1.4 °F - -4.0 °F 78% 29.91 in - Calm Calm - N/A   Unknown
1:56 AM 1.4 °F - -4.0 °F 78% 29.89 in - Calm Calm - N/A   Overcast
2:14 AM 1.4 °F - -4.0 °F 78% 29.89 in - Calm Calm - N/A   Unknown
2:36 AM 3.2 °F - -2.2 °F 78% 29.87 in - Calm Calm - N/A   Overcast
2:56 AM 3.2 °F - -2.2 °F 78% 29.87 in - Calm Calm - N/A   Overcast
3:16 AM 3.2 °F - -2.2 °F 78% 29.86 in - Calm Calm - N/A   Overcast
3:36 AM 3.2 °F - -2.2 °F 78% 29.86 in - Calm Calm - N/A   Overcast
3:56 AM 3.2 °F - -2.2 °F 78% 29.85 in - Calm Calm - N/A   Overcast
4:16 AM 3.2 °F - -2.2 °F 78% 29.84 in - Calm Calm - N/A Snow Light Snow
4:36 AM 3.2 °F - -0.4 °F 85% 29.84 in - Calm Calm - N/A Snow Light Snow
5:16 AM 5.0 °F - 1.4 °F 85% 29.84 in - Calm Calm - N/A Snow Light Snow
5:36 AM 5.0 °F - 1.4 °F 85% 29.84 in - Calm Calm - N/A Snow Light Snow
5:52 AM 6.8 °F - 1.4 °F 79% 29.84 in - Calm Calm - N/A Snow Light Snow
6:16 AM 6.8 °F - 1.4 °F 79% 29.85 in - Calm Calm - N/A Snow Snow
6:36 AM 6.8 °F - 1.4 °F 79% 29.85 in - Calm Calm - N/A Snow Snow
6:56 AM 5.0 °F - 1.4 °F 85% 29.85 in - Calm Calm - N/A Snow Light Snow
7:13 AM 5.0 °F - 1.4 °F 85% 29.84 in - Calm Calm - N/A Snow Light Snow
7:36 AM 5.0 °F - -0.4 °F 78% 29.86 in - Calm Calm - N/A   Overcast
7:56 AM 5.0 °F - -0.4 °F 78% 29.86 in - Calm Calm - N/A   Overcast
8:11 AM 5.0 °F - -0.4 °F 78% 29.86 in - Calm Calm - N/A Snow Light Snow
8:30 AM 5.0 °F -4.1 °F 1.4 °F 85% 29.86 in - ENE 4.6 mph - N/A   Clear
8:56 AM 8.6 °F - 1.4 °F 73% 29.86 in - Calm Calm - N/A   Clear
9:16 AM 8.6 °F - 1.4 °F 73% 29.86 in - Calm Calm - N/A   Scattered Clouds
9:32 AM 10.4 °F - 3.2 °F 73% 29.86 in - Calm Calm - N/A   Mostly Cloudy
9:52 AM 10.4 °F - 3.2 °F 73% 29.86 in - Calm Calm - N/A   Overcast
10:16 AM 10.4 °F - 3.2 °F 73% 29.86 in - Calm Calm - N/A   Overcast
10:35 AM 12.2 °F - 3.2 °F 67% 29.86 in - Calm Calm - N/A   Overcast
10:56 AM 14.0 °F - 5.0 °F 67% 29.86 in - Calm Calm - N/A   Overcast
11:12 AM 17.6 °F - 5.0 °F 58% 29.87 in - Calm Calm - N/A   Overcast
11:34 AM 17.6 °F - 8.6 °F 68% 29.87 in - Calm Calm - N/A   Overcast
11:56 AM 17.6 °F 12.3 °F 6.8 °F 63% 29.86 in - SE 3.5 mph - N/A   Overcast
12:16 PM 17.6 °F - 8.6 °F 68% 29.86 in - Calm Calm - N/A   Overcast
12:36 PM 19.4 °F 12.8 °F 8.6 °F 63% 29.86 in - ESE 4.6 mph - N/A   Overcast
12:56 PM 21.2 °F 16.4 °F 8.6 °F 58% 29.86 in - SE 3.5 mph - N/A   Overcast
1:11 PM 21.2 °F - 8.6 °F 58% 29.86 in - Calm Calm - N/A   Overcast
1:31 PM 21.2 °F - 8.6 °F 58% 29.86 in - Calm Calm - N/A   Overcast
1:56 PM 23.0 °F - 10.4 °F 59% 29.87 in - Calm Calm - N/A   Overcast
2:14 PM 21.2 °F - 8.6 °F 58% 29.87 in - Calm Calm - N/A   Overcast
2:35 PM 21.2 °F - 10.4 °F 63% 29.88 in - Calm Calm - N/A   Overcast
2:50 PM 23.0 °F - 10.4 °F 59% 29.88 in - Calm Calm - N/A   Overcast
3:10 PM 23.0 °F 15.8 °F 12.2 °F 63% 29.89 in - South 5.8 mph - N/A   Overcast
3:36 PM 23.0 °F 15.8 °F 10.4 °F 59% 29.91 in - SE 5.8 mph - N/A   Overcast
3:56 PM 23.0 °F 15.8 °F 8.6 °F 54% 29.92 in - NNW 5.8 mph - N/A   Overcast
4:16 PM 23.0 °F 17.0 °F 8.6 °F 54% 29.93 in - NNW 4.6 mph - N/A   Overcast
4:31 PM 23.0 °F 14.7 °F 8.6 °F 54% 29.94 in - NNW 6.9 mph - N/A   Overcast
4:56 PM 23.0 °F 13.9 °F 8.6 °F 54% 29.96 in - NNW 8.1 mph - N/A   Overcast
5:12 PM 21.2 °F 10.9 °F 8.6 °F 58% 29.96 in - NW 9.2 mph - N/A   Overcast
5:34 PM 21.2 °F 12.6 °F 10.4 °F 63% 29.97 in - NNW 6.9 mph - N/A   Overcast
5:56 PM 21.2 °F 12.6 °F 10.4 °F 63% 29.98 in - NNW 6.9 mph - N/A   Overcast
6:16 PM 21.2 °F 11.7 °F 10.4 °F 63% 30.00 in - NNW 8.1 mph - N/A   Overcast
6:36 PM 21.2 °F 13.6 °F 10.4 °F 63% 30.01 in - NW 5.8 mph - N/A   Overcast
6:51 PM 19.4 °F 11.5 °F 12.2 °F 74% 30.02 in - NW 5.8 mph - N/A   Overcast
7:13 PM 19.4 °F 11.5 °F 14.0 °F 80% 30.03 in - NNW 5.8 mph - N/A   Overcast
7:32 PM 19.4 °F - 14.0 °F 80% 30.04 in - Calm Calm - N/A   Overcast
7:56 PM 19.4 °F - 14.0 °F 80% 30.04 in - Calm Calm - N/A   Overcast
8:16 PM 17.6 °F - 12.2 °F 79% 30.06 in - Calm Calm - N/A   Overcast
8:36 PM 17.6 °F - 12.2 °F 79% 30.06 in - Calm Calm - N/A   Overcast
8:52 PM 14.0 °F - 10.4 °F 86% 30.07 in - Calm Calm - N/A   Unknown
9:10 PM 14.0 °F - 12.2 °F 93% 30.08 in - Calm Calm - N/A   Unknown
9:56 PM 12.2 °F - 8.6 °F 85% 30.10 in - Calm Calm - N/A   Unknown
10:16 PM 10.4 °F - 8.6 °F 92% 30.10 in - Calm Calm - N/A   Unknown
10:36 PM 12.2 °F - 8.6 °F 85% 30.11 in - Calm Calm - N/A   Unknown
10:54 PM 10.4 °F - 6.8 °F 85% 30.11 in - Calm Calm - N/A   Unknown
11:16 PM 8.6 °F - 5.0 °F 85% 30.12 in - Calm Calm - N/A   Unknown
11:32 PM 6.8 °F - 3.2 °F 85% 30.12 in - Calm Calm - N/A   Unknown
11:56 PM 3.2 °F -4.2 °F -2.2 °F 78% 30.14 in - ESE 3.5 mph - N/A   Clear